Weather History for KMGW - January, 2007

Change the Weather History Date:

Tuesday, January 9, 2007

  Actual Average Record
Temperature  
Mean Temperature 32 °F 31 °F  
Max Temperature 37 °F 39 °F 70 °F (1946)
Min Temperature 28 °F 24 °F -9 °F (1970)
Degree Days  
Heating Degree Days 32 34  
Month to date heating degree days 303  
Since 1 July heating degree days 2287  
Cooling Degree Days 0 0  
Month to date cooling degree days 0  
Year to date cooling degree days 0  
Moisture  
Dew Point 26 °F    
Average Humidity 78    
Maximum Humidity 89    
Minimum Humidity 50    
Precipitation  
Precipitation 0.07 in 0.08 in 0.84 in (1999)
Month to date precipitation 0.80  
Year to date precipitation 0.80  
Sea Level Pressure  
Sea Level Pressure 29.92 in    
Wind  
Wind Speed 6 mph (WSW)    
Max Wind Speed 12 mph    
Max Gust Speed 20 mph    
Visibility 5 miles    
Events Fog , Snow    
T = Trace of Precipitation, MM = Missing Value Source: NWS Daily Summary

Daily Weather History Graph

Daily Weather History Graph

Search for Another Location

Airport or City:

Trip Planner

Search our weather history database for the weather conditions in past years. The results will help you decide how hot, cold, wet, or windy it might be!

Date:

Astronomy

Jan. 09, 2007 Rise Set
Actual Time 7:40 AM EST 5:13 PM EST
Civil Twilight 7:10 AM EST 5:43 PM EST
Nautical Twilight 6:37 AM EST 6:16 PM EST
Astronomical Twilight 6:04 AM EST 6:49 PM EST
Moon 11:29 PM EST (1/9) 10:56 AM EST (1/9)
Length of Visible Light 10h 32m
Length of Day
9h 32m
Waning Gibbous, 67% of the Moon is Illuminated
Jan 9
Waning Gibbous
Jan 11
Last Quarter
Jan 18
New
Jan 25
First Quarter
Feb 2
Full

Hourly Weather History & Observations

Time (EST) Temp. Windchill Dew Point Humidity Pressure Visibility Wind Dir Wind Speed Gust Speed Precip Events Conditions
12:53 AM 32.0 °F 26.4 °F 17.1 °F 54% 29.95 in 10.0 mi SSW 5.8 mph - N/A   Overcast
1:53 AM 33.1 °F 27.7 °F 17.1 °F 52% 29.91 in 10.0 mi Variable 5.8 mph - N/A   Overcast
2:53 AM 33.1 °F 26.9 °F 16.0 °F 50% 29.89 in 10.0 mi SW 6.9 mph 17.3 mph N/A   Overcast
3:53 AM 34.0 °F 28.0 °F 19.0 °F 54% 29.88 in 10.0 mi Variable 6.9 mph - N/A   Overcast
4:53 AM 34.0 °F 28.0 °F 19.9 °F 56% 29.86 in 10.0 mi SSW 6.9 mph - N/A   Overcast
5:53 AM 34.0 °F 25.5 °F 23.0 °F 64% 29.85 in 9.0 mi SW 11.5 mph - N/A   Overcast
6:44 AM 32.0 °F 25.6 °F 26.6 °F 80% 29.83 in 2.5 mi SW 6.9 mph - 0.00 in Snow Light Snow
6:47 AM 32.0 °F 25.6 °F 26.6 °F 80% 29.83 in 1.8 mi SW 6.9 mph - 0.00 in Snow Light Snow
6:53 AM 32.0 °F 26.4 °F 28.0 °F 85% 29.86 in 1.0 mi Variable 5.8 mph - 0.00 in Snow Light Snow
7:02 AM 32.0 °F 26.4 °F 28.4 °F 87% 29.83 in 1.8 mi SW 5.8 mph - 0.00 in Snow Light Snow
7:07 AM 32.0 °F 24.8 °F 28.4 °F 87% 29.83 in 2.0 mi SW 8.1 mph - 0.00 in Snow Light Snow
7:30 AM 32.0 °F 26.4 °F 28.4 °F 87% 29.83 in 1.8 mi SW 5.8 mph - 0.00 in Snow Light Snow
7:37 AM 32.0 °F 26.4 °F 28.4 °F 87% 29.83 in 2.5 mi SW 5.8 mph - 0.00 in Snow Light Snow
7:49 AM 32.0 °F 27.5 °F 28.4 °F 87% 29.83 in 5.0 mi Variable 4.6 mph - 0.00 in Snow Light Snow
7:53 AM 32.0 °F 26.4 °F 28.9 °F 88% 29.86 in 5.0 mi SSW 5.8 mph - 0.00 in   Overcast
8:03 AM 32.0 °F 28.7 °F 28.4 °F 87% 29.83 in 6.0 mi South 3.5 mph - N/A   Overcast
8:06 AM 32.0 °F 27.5 °F 28.4 °F 87% 29.83 in 5.0 mi South 4.6 mph - N/A   Overcast
8:53 AM 32.0 °F 27.5 °F 28.9 °F 88% 29.87 in 3.0 mi SW 4.6 mph - 0.00 in Snow Light Snow
9:00 AM 32.0 °F 25.6 °F 28.4 °F 87% 29.84 in 2.5 mi Variable 6.9 mph - 0.00 in Snow Light Snow
9:07 AM 32.0 °F 26.4 °F 28.4 °F 87% 29.84 in 3.0 mi Variable 5.8 mph - 0.00 in   Overcast
9:23 AM 32.0 °F 26.4 °F 28.4 °F 87% 29.84 in 3.0 mi SW 5.8 mph - 0.00 in   Overcast
9:50 AM 33.8 °F 29.6 °F 28.4 °F 81% 29.85 in 3.0 mi SSW 4.6 mph - 0.01 in Snow Light Snow
9:53 AM 32.0 °F 28.7 °F 28.9 °F 88% 29.88 in 3.0 mi SW 3.5 mph - 0.01 in Snow Light Snow
10:00 AM 33.8 °F 30.8 °F 30.2 °F 87% 29.85 in 1.2 mi SSW 3.5 mph - 0.00 in Snow Light Snow
10:39 AM 33.8 °F 30.8 °F 28.4 °F 81% 29.85 in 2.5 mi SW 3.5 mph - 0.00 in   Overcast
10:53 AM 33.1 °F 28.7 °F 30.0 °F 89% 29.88 in 1.5 mi SW 4.6 mph - 0.00 in   Overcast
11:00 AM 33.8 °F 28.6 °F 30.2 °F 87% 29.85 in 1.0 mi SW 5.8 mph - 0.01 in Snow Light Snow
11:04 AM 33.8 °F 29.6 °F 30.2 °F 87% 29.85 in 0.8 mi SW 4.6 mph - 0.01 in Snow Light Snow
11:12 AM 33.8 °F 30.8 °F 30.2 °F 87% 29.84 in 1.0 mi Variable 3.5 mph - 0.01 in Snow Light Snow
11:40 AM 33.8 °F 29.6 °F 30.2 °F 87% 29.84 in 0.8 mi West 4.6 mph - 0.02 in Snow Light Snow
11:51 AM 33.8 °F 28.6 °F 30.2 °F 87% 29.84 in 1.0 mi West 5.8 mph - 0.02 in Snow Light Snow
11:53 AM 33.1 °F 28.7 °F 30.0 °F 89% 29.87 in 1.0 mi Variable 4.6 mph - 0.02 in Snow Light Snow
12:20 PM 33.8 °F - 30.2 °F 87% 29.84 in 3.0 mi Calm Calm - 0.01 in   Overcast
12:50 PM 33.8 °F 28.6 °F 28.4 °F 81% 29.84 in 7.0 mi Variable 5.8 mph - 0.01 in   Overcast
12:53 PM 34.0 °F 28.8 °F 28.9 °F 82% 29.87 in 8.0 mi West 5.8 mph - 0.01 in   Overcast
12:59 PM 33.8 °F 27.7 °F 28.4 °F 81% 29.84 in 10.0 mi West 6.9 mph - N/A   Overcast
1:22 PM 33.8 °F 28.6 °F 28.4 °F 81% 29.84 in 6.0 mi WNW 5.8 mph - N/A   Haze
1:53 PM 35.1 °F 29.3 °F 28.0 °F 76% 29.88 in 10.0 mi West 6.9 mph - N/A   Overcast
2:53 PM 37.0 °F 31.0 °F 27.0 °F 67% 29.88 in 10.0 mi West 8.1 mph 16.1 mph N/A   Mostly Cloudy
3:04 PM 37.4 °F 30.8 °F 26.6 °F 65% 29.85 in 10.0 mi WNW 9.2 mph 16.1 mph N/A   Overcast
3:48 PM 33.8 °F 27.7 °F 26.6 °F 75% 29.89 in 1.0 mi NW 6.9 mph - 0.00 in Snow Light Snow
3:50 PM 33.8 °F 27.0 °F 26.6 °F 75% 29.89 in 0.5 mi NW 8.1 mph - 0.01 in Snow Heavy Snow
3:53 PM 32.0 °F 25.6 °F 28.0 °F 85% 29.92 in 0.2 mi Variable 6.9 mph - 0.01 in Fog , Snow Snow
3:59 PM 32.0 °F 26.4 °F 28.4 °F 87% 29.90 in 4.0 mi NW 5.8 mph - 0.01 in Snow Light Snow
4:15 PM 33.8 °F 30.8 °F 28.4 °F 81% 29.90 in 10.0 mi Variable 3.5 mph - 0.01 in   Mostly Cloudy
4:53 PM 34.0 °F 27.2 °F 26.1 °F 73% 29.96 in 6.0 mi WNW 8.1 mph - 0.01 in   Haze
4:56 PM 33.8 °F 26.4 °F 26.6 °F 75% 29.92 in 2.0 mi WNW 9.2 mph - 0.00 in Snow Light Snow
5:00 PM 33.8 °F 28.6 °F 26.6 °F 75% 29.93 in 0.8 mi Variable 5.8 mph - 0.00 in Snow Light Snow
5:11 PM 32.0 °F 27.5 °F 28.4 °F 87% 29.93 in 10.0 mi Variable 4.6 mph - 0.00 in Snow Light Snow
5:43 PM 32.0 °F 26.4 °F 26.6 °F 80% 29.96 in 10.0 mi WNW 5.8 mph - 0.01 in   Overcast
5:53 PM 33.1 °F 27.7 °F 26.1 °F 75% 30.00 in 10.0 mi WNW 5.8 mph - 0.01 in   Overcast
6:53 PM 33.1 °F 24.9 °F 23.0 °F 66% 30.03 in 10.0 mi West 10.4 mph - N/A   Overcast
7:53 PM 32.0 °F 23.6 °F 21.9 °F 66% 30.05 in 10.0 mi WNW 10.4 mph 16.1 mph N/A   Overcast
8:53 PM 32.0 °F 26.4 °F 21.0 °F 64% 30.07 in 10.0 mi Variable 5.8 mph - N/A   Overcast
9:53 PM 30.9 °F 24.3 °F 17.1 °F 57% 30.10 in 10.0 mi WNW 6.9 mph 19.6 mph 0.00 in   Overcast
10:23 PM 28.4 °F 20.4 °F 21.2 °F 74% 30.08 in 1.5 mi NW 8.1 mph - 0.00 in Snow Light Snow
10:27 PM 28.4 °F 20.4 °F 21.2 °F 74% 30.09 in 0.8 mi NW 8.1 mph - 0.00 in Snow Light Snow
10:34 PM 28.4 °F 20.4 °F 21.2 °F 74% 30.09 in 0.8 mi WNW 8.1 mph - 0.00 in Snow Light Snow
10:39 PM 28.4 °F 19.7 °F 21.2 °F 74% 30.09 in 2.5 mi WNW 9.2 mph - 0.00 in Snow Light Snow
10:41 PM 28.4 °F 20.4 °F 21.2 °F 74% 30.09 in 6.0 mi WNW 8.1 mph 16.1 mph 0.00 in Snow Light Snow
10:48 PM 28.4 °F 20.4 °F 21.2 °F 74% 30.10 in 5.0 mi WNW 8.1 mph - 0.00 in   Haze
10:53 PM 28.0 °F 20.0 °F 21.9 °F 78% 30.13 in 1.5 mi WNW 8.1 mph - 0.00 in Snow Light Snow
10:58 PM 28.4 °F 21.2 °F 21.2 °F 74% 30.10 in 1.2 mi Variable 6.9 mph - 0.00 in Snow Light Snow
11:04 PM 28.4 °F 21.2 °F 21.2 °F 74% 30.09 in 3.0 mi West 6.9 mph - 0.00 in Snow Light Snow
11:53 PM 28.9 °F 23.9 °F 17.1 °F 61% 30.13 in 10.0 mi Variable 4.6 mph - 0.00 in   Overcast